CW5102 Weather Reports


Display with metric or nautical units.
time (UTC)temp
F
wind
direction
speed
MPH
gust
MPH
rain 1hr
in
rain 24hr
in
rain mn
in
humidity
%
barometer
mb
20260505130204 39 28 0.0 6.0 0.00 0.00 0.00 46 1009.1
20260505124703 39 14 3.0 12.0 0.00 0.00 0.00 45 1008.9
20260505124204 39 59 2.0 12.0 0.00 0.00 0.00 45 1008.8
20260505122703 38 4 5.0 17.0 0.00 0.00 0.00 46 1008.6
20260505122204 38 27 5.0 17.0 0.00 0.00 0.00 47 1008.4
20260505121703 38 6 4.0 17.0 0.00 0.00 0.00 48 1008.4
20260505121203 38 47 2.0 9.0 0.00 0.00 0.00 49 1008.3
20260505120703 38 15 5.0 8.0 0.00 0.00 0.00 50 1008.4
20260505120203 38 0 2.0 9.0 0.00 0.00 0.00 52 1008.2
20260505115704 38 65 1.0 10.0 0.00 0.00 0.00 53 1008.1
20260505115203 38 35 3.0 10.0 0.00 0.00 0.00 53 1008.0
20260505114703 38 23 3.0 10.0 0.00 0.00 0.00 54 1008.0
20260505114204 38 22 1.0 10.0 0.00 0.00 0.00 55 1007.9
20260505113704 38 46 2.0 10.0 0.00 0.00 0.00 55 1007.7
20260505113203 38 0 1.0 6.0 0.00 0.00 0.00 56 1007.8
20260505112704 38 17 2.0 7.0 0.00 0.00 0.00 56 1007.7
20260505112203 38 26 3.0 10.0 0.00 0.00 0.00 56 1007.7
20260505111704 38 6 3.0 10.0 0.00 0.00 0.00 55 1007.7
20260505110704 39 10 2.0 9.0 0.00 0.00 0.00 56 1007.5
20260505110203 39 4 1.0 9.0 0.00 0.00 0.00 56 1007.4
20260505101704 39 41 2.0 9.0 0.00 0.00 0.00 56 1007.4
20260505101204 40 9 1.0 9.0 0.00 0.00 0.00 56 1007.3
20260505100704 40 25 3.0 9.0 0.00 0.00 0.00 56 1007.2
20260505095703 40 27 1.0 9.0 0.00 0.00 0.00 56 1007.2
20260505095203 40 31 3.0 9.0 0.00 0.00 0.00 55 1007.1
20260505094704 40 50 2.0 8.0 0.00 0.00 0.00 56 1007.2
20260505094204 40 52 1.0 8.0 0.00 0.00 0.00 56 1007.1
20260505093703 40 25 1.0 9.0 0.00 0.00 0.00 55 1007.1
20260505093204 40 34 4.0 9.0 0.00 0.00 0.00 54 1007.1
20260505092704 40 5 1.0 7.0 0.00 0.00 0.00 54 1007.0
20260505092203 40 5 3.0 7.0 0.00 0.00 0.00 54 1007.0
20260505091704 40 32 2.0 10.0 0.00 0.00 0.00 54 1007.0
20260505091204 40 2 4.0 10.0 0.00 0.00 0.00 54 1006.9
20260505090704 40 28 3.0 9.0 0.00 0.00 0.00 54 1006.9
20260505090204 41 2 2.0 9.0 0.00 0.00 0.00 54 1006.8
20260505085204 41 46 1.0 12.0 0.00 0.00 0.00 53 1006.7
20260505084704 41 342 1.0 12.0 0.00 0.00 0.00 53 1006.7
20260505084205 41 23 1.0 12.0 0.00 0.00 0.00 53 1006.6
20260505083703 41 8 3.0 12.0 0.00 0.00 0.00 53 1006.6
20260505083205 41 352 1.0 7.0 0.00 0.00 0.00 52 1006.4
20260505082705 41 32 2.0 9.0 0.00 0.00 0.00 52 1006.4
20260505082204 41 23 2.0 9.0 0.00 0.00 0.00 51 1006.2
20260505081705 41 2 3.0 8.0 0.00 0.00 0.00 52 1006.3
20260505081205 41 333 1.0 7.0 0.00 0.00 0.00 52 1006.3
20260505080704 41 292 2.0 7.0 0.00 0.00 0.00 51 1006.2
20260505080205 41 358 1.0 7.0 0.00 0.00 0.00 51 1006.1
20260505075705 42 329 0.0 7.0 0.00 0.00 0.00 50 1006.1
20260505075205 42 11 1.0 9.0 0.00 0.00 0.00 50 1006.1
20260505074204 42 358 1.0 9.0 0.00 0.00 0.00 50 1006.2
20260505073205 42 12 1.0 6.0 0.00 0.00 0.00 50 1006.2
20260505072705 42 13 1.0 6.0 0.00 0.00 0.00 50 1006.1
20260505072205 42 2 0.0 12.0 0.00 0.00 0.00 50 1006.2
20260505071705 42 358 0.0 12.0 0.00 0.00 0.00 49 1006.2
20260505071205 42 3 2.0 12.0 0.00 0.00 0.00 49 1006.2
20260505070705 42 9 3.0 7.0 0.00 0.00 0.00 48 1006.1
20260505070204 42 29 1.0 8.0 0.00 0.00 0.00 49 1006.1
20260505065705 42 344 1.0 10.0 0.00 0.00 0.00 48 1006.2
20260505065205 43 1 1.0 10.0 0.00 0.00 0.00 48 1006.2
20260505064705 43 0 1.0 9.0 0.00 0.00 0.00 48 1006.3
20260505063705 43 14 1.0 8.0 0.00 0.00 0.00 48 1006.1
20260505063205 43 11 1.0 8.0 0.00 0.00 0.00 48 1006.1
20260505062205 43 10 4.0 8.0 0.00 0.00 0.00 47 1006.3
20260505061705 43 9 0.0 7.0 0.00 0.00 0.00 48 1006.3
20260505061205 43 357 1.0 7.0 0.00 0.00 0.00 47 1006.3
20260505060705 44 9 1.0 9.0 0.00 0.00 0.00 47 1006.3
20260505060205 44 6 2.0 9.0 0.00 0.00 0.00 47 1006.4
20260505055705 44 2 2.0 12.0 0.00 0.00 0.00 47 1006.2
20260505055205 44 22 2.0 12.0 0.00 0.00 0.00 47 1006.2
20260505054705 44 0 1.0 7.0 0.00 0.00 0.00 48 1006.1
20260505054205 44 4 2.0 7.0 0.00 0.00 0.00 47 1006.1
20260505053705 44 20 2.0 7.0 0.00 0.00 0.00 48 1006.0
20260505053205 44 5 1.0 5.0 0.00 0.00 0.00 47 1005.9
20260505052705 44 46 0.0 8.0 0.00 0.00 0.00 48 1006.0
20260505052205 44 43 2.0 8.0 0.00 0.00 0.00 48 1006.0
20260505051705 44 344 1.0 5.0 0.00 0.00 0.00 48 1005.8
20260505051205 45 0 0.0 8.0 0.00 0.00 0.00 47 1005.8
20260505050704 45 353 1.0 8.0 0.00 0.00 0.00 47 1005.7
20260505050205 45 358 2.0 8.0 0.00 0.00 0.00 46 1005.8
20260505041705 45 314 1.0 6.0 0.00 0.00 0.00 45 1005.7
20260505040705 46 347 1.0 7.0 0.00 0.00 0.00 45 1005.7
20260505040206 45 0 1.0 7.0 0.00 0.00 0.00 45 1005.7
20260505035704 45 350 1.0 6.0 0.00 0.00 0.00 46 1005.7
20260505035206 46 348 0.0 6.0 0.00 0.00 0.00 45 1005.6
20260505034705 46 349 0.0 2.0 0.00 0.00 0.00 46 1005.6
20260505034205 46 349 0.0 2.0 0.00 0.00 0.00 45 1005.5
20260505033705 46 349 0.0 2.0 0.00 0.00 0.00 44 1005.5
20260505033205 46 349 0.0 3.0 0.00 0.00 0.00 44 1005.6
20260505032704 46 349 0.0 3.0 0.00 0.00 0.00 43 1005.5
20260505032205 46 350 0.0 3.0 0.00 0.00 0.00 43 1005.5
20260505031205 46 353 1.0 3.0 0.00 0.00 0.00 42 1005.5
20260505030706 46 16 1.0 3.0 0.00 0.00 0.00 42 1005.5
20260505030205 46 356 0.0 3.0 0.00 0.00 0.00 42 1005.5
20260505025706 46 1 1.0 3.0 0.00 0.00 0.00 42 1005.5
20260505025204 46 310 0.0 3.0 0.00 0.00 0.00 42 1005.4
20260505024706 46 314 0.0 5.0 0.00 0.00 0.00 42 1005.4
20260505023705 47 325 0.0 3.0 0.00 0.00 0.00 42 1005.3
20260505023205 47 343 0.0 3.0 0.00 0.00 0.00 41 1005.2
20260505022705 47 342 0.0 3.0 0.00 0.00 0.00 40 1005.1
20260505022205 47 342 0.0 3.0 0.00 0.00 0.00 39 1005.0
20260505021705 47 343 1.0 5.0 0.00 0.00 0.00 40 1005.0
20260505021205 47 354 1.0 5.0 0.00 0.00 0.00 39 1005.0
20260505020705 47 351 0.0 3.0 0.00 0.00 0.00 39 1004.9
20260505020205 47 14 1.0 5.0 0.00 0.00 0.00 38 1004.8
20260505015705 48 7 1.0 5.0 0.00 0.00 0.00 38 1004.8
20260505015205 48 355 0.0 3.0 0.00 0.00 0.00 39 1004.8
20260505014705 48 356 1.0 7.0 0.00 0.00 0.00 38 1004.7
20260505014205 48 12 1.0 7.0 0.00 0.00 0.00 37 1004.7
20260505013705 48 26 2.0 13.0 0.00 0.00 0.00 36 1004.6
20260505013205 48 12 1.0 13.0 0.00 0.00 0.00 36 1004.6
20260505012205 49 0 3.0 12.0 0.00 0.00 0.00 36 1004.5
20260505011705 49 354 4.0 13.0 0.00 0.00 0.00 36 1004.5
20260505011206 49 5 6.0 20.0 0.00 0.00 0.00 36 1004.6
20260505010705 49 347 5.0 20.0 0.00 0.00 0.00 35 1004.5
20260505010206 50 43 6.0 20.0 0.00 0.00 0.00 34 1004.3
20260505005705 50 15 6.0 20.0 0.00 0.00 0.00 34 1004.3
20260505004705 51 17 7.0 21.0 0.00 0.00 0.00 34 1004.1
20260505004205 51 35 4.0 21.0 0.00 0.00 0.00 36 1003.9
20260505003705 51 23 7.0 21.0 0.00 0.00 0.00 34 1003.9
20260505003205 51 343 4.0 22.0 0.00 0.00 0.00 35 1003.9
20260505002705 52 15 6.0 22.0 0.00 0.00 0.00 34 1003.8
20260505002205 52 10 4.0 16.0 0.00 0.00 0.00 33 1003.8
20260505001706 52 16 5.0 16.0 0.00 0.00 0.00 33 1003.6
20260505001206 52 18 4.0 16.0 0.00 0.00 0.00 33 1003.5
20260505000205 53 16 7.0 23.0 0.00 0.00 0.00 33 1003.3
20260504235705 53 357 6.0 23.0 0.00 0.00 0.00 33 1003.2
20260504235205 54 26 3.0 12.0 0.00 0.00 0.00 33 1003.1
20260504234705 54 355 3.0 15.0 0.00 0.00 0.00 33 1003.1
20260504234205 54 6 3.0 15.0 0.00 0.00 0.00 34 1003.1
20260504233705 53 28 5.0 15.0 0.00 0.00 0.00 34 1003.1
20260504233205 54 31 5.0 15.0 0.00 0.00 0.00 33 1003.0
20260504232706 54 9 3.0 15.0 0.00 0.00 0.00 33 1003.1
20260504232206 54 44 2.0 14.0 0.00 0.00 0.00 33 1002.9
20260504231705 54 355 5.0 18.0 0.00 0.00 0.00 33 1002.9
20260504231205 54 11 6.0 18.0 0.00 0.00 0.00 32 1002.8
20260504230706 55 25 1.0 14.0 0.00 0.00 0.00 33 1002.7
20260504225705 54 358 5.0 16.0 0.00 0.00 0.00 33 1002.7
20260504225205 54 18 5.0 18.0 0.00 0.00 0.00 33 1002.7
20260504224705 55 353 6.0 20.0 0.00 0.00 0.00 33 1002.6
20260504224205 55 358 6.0 20.0 0.00 0.00 0.00 33 1002.6
20260504223706 55 29 6.0 20.0 0.00 0.00 0.00 33 1002.4
20260504223206 55 13 6.0 18.0 0.00 0.00 0.00 33 1002.4
20260504222705 56 2 7.0 18.0 0.00 0.00 0.00 33 1002.3
20260504222205 56 21 1.0 18.0 0.00 0.00 0.00 33 1002.2
20260504221705 56 355 8.0 18.0 0.00 0.00 0.00 33 1002.1
20260504221205 57 3 9.0 18.0 0.00 0.00 0.00 33 1002.0
20260504220706 57 280 1.0 21.0 0.00 0.00 0.00 36 1001.8
20260504220205 57 47 5.0 21.0 0.00 0.00 0.00 34 1001.8
20260504215705 57 354 3.0 21.0 0.00 0.00 0.00 33 1001.7
20260504215206 57 13 4.0 20.0 0.00 0.00 0.00 33 1001.6
20260504214705 58 9 2.0 22.0 0.00 0.00 0.00 34 1001.7
20260504214205 58 6 8.0 22.0 0.00 0.00 0.00 32 1001.5
20260504213705 58 60 2.0 20.0 0.00 0.00 0.00 33 1001.4
20260504213206 58 358 5.0 20.0 0.00 0.00 0.00 32 1001.4
20260504212705 59 21 6.0 20.0 0.00 0.00 0.00 32 1001.4
20260504211205 60 349 5.0 20.0 0.00 0.00 0.00 31 1001.2
20260504210705 61 33 5.0 20.0 0.00 0.00 0.00 30 1001.0
20260504210206 60 28 8.0 20.0 0.00 0.00 0.00 30 1000.9
20260504205205 60 355 5.0 20.0 0.00 0.00 0.00 31 1001.0
20260504204705 60 17 5.0 16.0 0.00 0.00 0.00 31 1000.9
20260504204205 60 10 1.0 20.0 0.00 0.00 0.00 33 1000.9
20260504203205 60 3 5.0 26.0 0.00 0.00 0.00 32 1000.8
20260504202705 60 8 5.0 26.0 0.00 0.00 0.00 32 1000.8
20260504201705 61 25 4.0 17.0 0.00 0.00 0.00 32 1000.6
20260504201205 61 345 2.0 18.0 0.00 0.00 0.00 31 1000.6
20260504195705 61 12 6.0 21.0 0.00 0.00 0.00 31 1000.5
20260504195206 61 348 6.0 20.0 0.00 0.00 0.00 32 1000.5
20260504194706 61 17 5.0 20.0 0.00 0.00 0.00 32 1000.4
20260504193707 61 336 5.0 17.0 0.00 0.00 0.00 34 1000.4
20260504193205 61 10 7.0 20.0 0.00 0.00 0.00 33 1000.3
20260504192705 61 2 6.0 22.0 0.00 0.00 0.00 33 1000.2
20260504192205 61 14 6.0 22.0 0.00 0.00 0.00 33 1000.3
20260504191706 61 352 4.0 23.0 0.00 0.00 0.00 34 1000.1
20260504191205 62 12 6.0 23.0 0.00 0.00 0.00 32 1000.0
20260504190705 62 14 7.0 23.0 0.00 0.00 0.00 31 1000.1
20260504185706 63 357 7.0 22.0 0.00 0.00 0.00 32 999.9
20260504185205 62 0 4.0 22.0 0.00 0.00 0.00 32 999.7
20260504184705 62 52 5.0 15.0 0.00 0.00 0.00 33 999.6
20260504184205 62 348 4.0 18.0 0.00 0.00 0.00 34 999.6
20260504183705 61 355 5.0 18.0 0.00 0.00 0.00 33 999.6
20260504183205 62 22 5.0 18.0 0.00 0.00 0.00 33 999.3
20260504182705 61 355 6.0 22.0 0.00 0.00 0.00 33 999.4
20260504182206 61 355 9.0 22.0 0.00 0.00 0.00 32 999.4
20260504181706 61 17 7.0 22.0 0.00 0.00 0.00 32 999.3
20260504181205 62 9 5.0 22.0 0.00 0.00 0.00 33 999.2
20260504180705 62 24 4.0 14.0 0.00 0.00 0.00 32 999.0
20260504180206 62 325 3.0 20.0 0.00 0.00 0.00 32 998.9
20260504175706 62 339 4.0 20.0 0.00 0.00 0.00 31 999.0
20260504175206 62 5 7.0 20.0 0.00 0.00 0.00 31 998.9
20260504173703 62 346 2.0 20.0 0.00 0.00 0.00 32 998.8
20260504173204 62 355 6.0 21.0 0.00 0.00 0.00 31 998.7
20260504172703 62 334 2.0 21.0 0.00 0.00 0.00 32 998.8
20260504172203 62 351 6.0 23.0 0.00 0.00 0.00 32 998.8
20260504171704 62 351 2.0 23.0 0.00 0.00 0.00 36 998.7
20260504171203 62 20 3.0 20.0 0.00 0.00 0.00 34 998.7
20260504170703 62 15 3.0 18.0 0.00 0.00 0.00 37 998.5
20260504170203 61 303 2.0 17.0 0.00 0.00 0.00 39 998.5
20260504160203 60 344 5.0 13.0 0.00 0.00 0.00 37 998.2
20260504150703 59 315 3.0 17.0 0.00 0.00 0.00 39 997.9
20260504150203 59 5 6.0 17.0 0.00 0.00 0.00 37 997.9
20260504141203 58 12 8.0 23.0 0.00 0.00 0.00 36 997.8
20260504140204 58 11 7.0 21.0 0.00 0.00 0.00 37 997.7